AB8DT-10 Weather Reports


time (UTC)temp
F
wind
direction
speed
knots
gust
knots
rain 1hr
in
rain 24hr
in
rain mn
in
humidity
%
barometer
mb
20260507030646 47 331 0.0 0.0 0.00 0.00 0.00 51
20260507030146 47 331 0.0 0.0 0.00 0.00 0.00 50
20260507025646 47 331 0.0 2.6 0.00 0.00 0.00 49
20260507025146 47 272 0.0 2.6 0.00 0.00 0.00 49
20260507024646 47 299 1.7 1.7 0.00 0.00 0.00 48
20260507024146 47 254 0.0 1.7 0.00 0.00 0.00 48
20260507023646 48 306 0.0 4.3 0.00 0.00 0.00 48
20260507023146 48 299 0.0 3.5 0.00 0.00 0.00 47
20260507022646 48 333 0.0 5.2 0.00 0.00 0.00 47
20260507022146 48 278 2.6 5.2 0.00 0.00 0.00 47
20260507021646 48 306 0.9 6.1 0.00 0.00 0.00 47
20260507021146 48 303 2.6 5.2 0.00 0.00 0.00 48
20260507020646 48 306 1.7 4.3 0.00 0.00 0.00 48
20260507020146 48 303 2.6 5.2 0.00 0.00 0.00 48
20260507015646 48 355 0.0 4.3 0.00 0.00 0.00 48
20260507015146 48 296 4.3 6.1 0.00 0.00 0.00 48
20260507014646 48 292 2.6 4.3 0.00 0.00 0.00 48
20260507014146 49 296 2.6 4.3 0.00 0.00 0.00 48
20260507013646 49 326 0.0 4.3 0.00 0.00 0.00 47
20260507013146 49 307 0.9 5.2 0.00 0.00 0.00 48
20260507012646 49 277 5.2 5.2 0.00 0.00 0.00 48
20260507012146 49 282 0.0 4.3 0.00 0.00 0.00 47
20260507011646 49 310 1.7 5.2 0.00 0.00 0.00 47
20260507011146 49 286 3.5 4.3 0.00 0.00 0.00 47
20260507010646 49 288 0.9 4.3 0.00 0.00 0.00 46
20260507010146 49 284 1.7 5.2 0.00 0.00 0.00 46
20260507005646 49 306 2.6 6.1 0.00 0.00 0.00 45
20260507005146 50 296 3.5 4.3 0.00 0.00 0.00 45
20260507004646 49 267 3.5 6.1 0.00 0.00 0.00 46
20260507004146 50 284 2.6 7.0 0.00 0.00 0.00 45
20260507003646 50 296 3.5 7.0 0.00 0.00 0.00 44
20260507003146 50 309 4.3 7.0 0.00 0.00 0.00 44
20260507002646 50 292 1.7 7.8 0.00 0.00 0.00 43
20260507002146 50 298 4.3 7.8 0.00 0.00 0.00 42
20260507001646 51 281 0.9 7.8 0.00 0.00 0.00 43
20260507001146 50 312 4.3 10.4 0.00 0.00 0.00 42
20260507000646 50 310 5.2 7.8 0.00 0.00 0.00 41
20260507000146 51 312 1.7 9.6 0.00 0.00 0.00 41
20260506235646 51 313 1.7 5.2 0.00 0.00 0.00 42
20260506235146 51 292 2.6 7.0 0.00 0.00 0.00 41
20260506234646 51 320 2.6 9.6 0.00 0.00 0.00 41
20260506234146 51 284 6.1 8.7 0.00 0.00 0.00 40
20260506233646 51 299 3.5 9.6 0.00 0.00 0.00 41
20260506233146 51 292 5.2 9.6 0.00 0.00 0.00 40
20260506232646 52 306 5.2 9.6 0.00 0.00 0.00 40
20260506232146 51 289 7.0 9.6 0.00 0.00 0.00 39
20260506231646 51 291 6.1 9.6 0.00 0.00 0.00 39
20260506231146 52 334 4.3 7.8 0.00 0.00 0.00 39
20260506230646 52 265 1.7 8.7 0.00 0.00 0.00 40
20260506230146 51 293 4.3 13.9 0.00 0.00 0.00 38
20260506225646 51 288 7.0 12.2 0.00 0.00 0.00 38
20260506225146 52 341 7.0 9.6 0.00 0.00 0.00 38
20260506224646 52 320 4.3 11.3 0.00 0.00 0.00 37
20260506224146 52 271 7.8 15.6 0.00 0.00 0.00 36
20260506223646 53 338 3.5 12.2 0.00 0.00 0.00 38
20260506223146 53 277 10.4 10.4 0.00 0.00 0.00 37
20260506222647 53 270 5.2 10.4 0.00 0.00 0.00 37
20260506222147 53 278 7.8 10.4 0.00 0.00 0.00 36
20260506221646 53 268 8.7 12.2 0.00 0.00 0.00 35
20260506221147 53 295 7.8 13.0 0.00 0.00 0.00 36
20260506220647 52 305 10.4 15.6 0.00 0.00 0.00 36
20260506220147 53 329 3.5 14.8 0.00 0.00 0.00 37
20260506215647 53 323 7.8 13.0 0.00 0.00 0.00 36
20260506215147 53 289 5.2 13.9 0.00 0.00 0.00 35
20260506214647 53 309 7.0 15.6 0.00 0.00 0.00 35
20260506214147 53 292 7.0 14.8 0.00 0.00 0.00 35
20260506213647 53 1 9.6 11.3 0.00 0.00 0.00 35
20260506213147 53 282 11.3 11.3 0.00 0.00 0.00 34
20260506212647 53 257 5.2 14.8 0.00 0.00 0.00 34
20260506212147 53 330 1.7 10.4 0.00 0.00 0.00 36
20260506211647 52 15 4.3 13.0 0.00 0.00 0.00 38
20260506211147 52 337 5.2 13.0 0.00 0.00 0.00 37
20260506210647 52 300 10.4 11.3 0.00 0.00 0.00 36
20260506210147 52 323 4.3 11.3 0.00 0.00 0.00 38
20260506205647 52 320 11.3 14.8 0.00 0.00 0.00 34
20260506205147 53 317 8.7 14.8 0.00 0.00 0.00 37
20260506204647 52 319 9.6 11.3 0.00 0.00 0.00 36
20260506204147 53 299 3.5 12.2 0.00 0.00 0.00 38
20260506203647 52 299 7.8 13.0 0.00 0.00 0.00 36
20260506203147 52 274 9.6 13.9 0.00 0.00 0.00 35
20260506202647 53 268 8.7 17.4 0.00 0.00 0.00 35
20260506202147 53 310 8.7 14.8 0.00 0.00 0.00 33
20260506201647 53 248 13.0 13.0 0.00 0.00 0.00 39
20260506201147 53 300 5.2 12.2 0.00 0.00 0.00 35
20260506200647 53 270 0.9 12.2 0.00 0.00 0.00 36
20260506200147 52 277 7.8 13.9 0.00 0.00 0.00 37
20260506195647 53 270 5.2 14.8 0.00 0.00 0.00 35
20260506195147 53 326 3.5 13.9 0.00 0.00 0.00 37
20260506194647 53 288 2.6 14.8 0.00 0.00 0.00 39
20260506194147 52 265 9.6 13.0 0.00 0.00 0.00 35
20260506193647 53 317 5.2 9.6 0.00 0.00 0.00 39
20260506193147 52 274 7.8 12.2 0.00 0.00 0.00 36
20260506192647 53 279 5.2 10.4 0.00 0.00 0.00 37
20260506192147 52 281 10.4 12.2 0.00 0.00 0.00 37
20260506191647 52 265 11.3 17.4 0.00 0.00 0.00 35
20260506191147 53 316 6.1 13.9 0.00 0.00 0.00 35
20260506190647 52 302 3.5 14.8 0.00 0.00 0.00 35
20260506190147 53 264 10.4 13.9 0.00 0.00 0.00 35
20260506185647 53 265 11.3 13.9 0.00 0.00 0.00 36
20260506185147 53 284 7.0 17.4 0.00 0.00 0.00 35
20260506184647 53 268 7.0 16.5 0.00 0.00 0.00 35
20260506184147 52 282 12.2 17.4 0.00 0.00 0.00 37
20260506183647 51 291 8.7 15.6 0.00 0.00 0.00 39
20260506183147 51 317 3.5 13.9 0.00 0.00 0.00 37
20260506182647 51 320 12.2 16.5 0.00 0.00 0.00 37
20260506182147 51 265 7.0 14.8 0.00 0.00 0.00 37
20260506181647 51 315 7.8 13.9 0.00 0.00 0.00 37
20260506181147 51 320 9.6 14.8 0.00 0.00 0.00 38
20260506180647 51 317 7.8 14.8 0.00 0.00 0.00 40
20260506180147 50 12 7.8 13.9 0.00 0.00 0.00 38
20260506175647 51 337 4.3 14.8 0.00 0.00 0.00 40
20260506175147 51 326 13.0 13.0 0.00 0.00 0.00 44
20260506174647 51 351 6.1 14.8 0.00 0.00 0.00 40
20260506174147 51 293 8.7 13.9 0.00 0.00 0.00 39
20260506173647 51 270 6.1 9.6 0.00 0.00 0.00 38
20260506173147 51 37 5.2 10.4 0.00 0.00 0.00 40
20260506172647 51 305 8.7 10.4 0.00 0.00 0.00 41
20260506172147 50 293 4.3 13.0 0.00 0.00 0.00 40
20260506171647 51 286 3.5 10.4 0.00 0.00 0.00 39
20260506171147 51 296 5.2 10.4 0.00 0.00 0.00 38
20260506170647 50 261 10.4 10.4 0.00 0.00 0.00 40
20260506170147 50 286 8.7 9.6 0.00 0.00 0.00 40
20260506165647 50 306 5.2 8.7 0.00 0.00 0.00 41
20260506165147 50 296 4.3 7.8 0.00 0.00 0.00 41
20260506164647 50 345 4.3 9.6 0.00 0.00 0.00 41
20260506164147 50 324 9.6 11.3 0.00 0.00 0.00 39
20260506163647 52 343 6.1 6.1 0.00 0.00 0.00 44
20260506163147 51 337 3.5 7.0 0.00 0.00 0.00 44
20260506162647 50 284 1.7 10.4 0.00 0.00 0.00 44
20260506162147 50 309 3.5 13.9 0.00 0.00 0.00 44
20260506161647 49 0 1.7 12.2 0.00 0.00 0.00 41
20260506161147 50 329 9.6 13.9 0.00 0.00 0.00 41
20260506160647 50 303 0.9 8.7 0.00 0.00 0.00 40
20260506160147 50 351 3.5 14.8 0.00 0.00 0.00 42
20260506155647 49 337 6.1 11.3 0.00 0.00 0.00 42
20260506155147 49 322 6.1 10.4 0.00 0.00 0.00 40
20260506154647 49 288 7.0 13.0 0.00 0.00 0.00 41
20260506154147 50 262 9.6 9.6 0.00 0.00 0.00 44
20260506153647 50 279 4.3 7.8 0.00 0.00 0.00 43
20260506153147 49 264 4.3 11.3 0.00 0.00 0.00 45
20260506152647 50 279 5.2 6.1 0.00 0.00 0.00 44
20260506152147 49 25 0.0 6.1 0.00 0.00 0.00 45
20260506151647 50 298 0.0 6.1 0.00 0.00 0.00 45
20260506151147 49 35 1.7 6.1 0.00 0.00 0.00 45
20260506150647 49 358 0.0 10.4 0.00 0.00 0.00 45
20260506150147 49 295 7.0 11.3 0.00 0.00 0.00 42
20260506145647 49 49 0.0 2.6 0.00 0.00 0.00 48
20260506145147 49 305 0.0 5.2 0.00 0.00 0.00 48
20260506144647 48 330 0.0 5.2 0.00 0.00 0.00 49
20260506144147 48 267 0.0 6.1 0.00 0.00 0.00 48
20260506143648 49 1 3.5 7.0 0.00 0.00 0.00 48
20260506143147 49 43 3.5 4.3 0.00 0.00 0.00 49